TimeEDT,TemperatureF,Dew PointF,Humidity,Sea Level PressureIn,VisibilityMPH,Wind Direction,Wind SpeedMPH,Gust SpeedMPH,PrecipitationIn,Events,Conditions,WindDirDegrees,DateUTC
12:15 AM,37.6,37.6,100,29.93,0.8,NW,3.5,-,N/A,,Overcast,310,2013-03-19 04:15:00
12:35 AM,37.6,37.6,100,29.92,0.8,Calm,Calm,-,N/A,,Overcast,0,2013-03-19 04:35:00
12:55 AM,37.2,37.2,100,29.92,0.5,Calm,Calm,-,N/A,Fog,Fog,0,2013-03-19 04:55:00
1:15 AM,37.4,37.4,100,29.93,0.8,WNW,3.5,-,N/A,,Overcast,290,2013-03-19 05:15:00
1:35 AM,37.4,37.4,100,29.90,0.5,Calm,Calm,-,N/A,Fog,Fog,0,2013-03-19 05:35:00
1:55 AM,37.4,37.4,100,29.90,0.8,Calm,Calm,-,0.01,,Overcast,0,2013-03-19 05:55:00
2:15 AM,37.8,37.8,100,29.90,1.8,Calm,Calm,-,N/A,,Overcast,0,2013-03-19 06:15:00
2:55 AM,38.3,38.3,100,29.90,0.5,Calm,Calm,-,N/A,Fog,Fog,0,2013-03-19 06:55:00
3:15 AM,38.3,38.3,100,29.90,0.2,Calm,Calm,-,N/A,Fog,Fog,0,2013-03-19 07:15:00
3:35 AM,38.3,38.3,100,29.89,0.2,West,3.5,-,N/A,Fog,Fog,260,2013-03-19 07:35:00
3:55 AM,38.3,38.3,100,29.89,0.2,WSW,3.5,-,N/A,Fog,Fog,250,2013-03-19 07:55:00
4:15 AM,38.5,38.5,100,29.89,0.2,Calm,Calm,-,N/A,Fog,Fog,0,2013-03-19 08:15:00
4:35 AM,38.5,38.5,100,29.88,0.2,Calm,Calm,-,N/A,Fog,Fog,0,2013-03-19 08:35:00
4:55 AM,38.5,38.5,100,29.87,0.2,Calm,Calm,-,N/A,Fog,Fog,0,2013-03-19 08:55:00
5:15 AM,38.5,38.5,100,29.88,0.2,Calm,Calm,-,N/A,Fog,Fog,0,2013-03-19 09:15:00
5:35 AM,38.5,38.5,100,29.88,0.2,West,4.6,-,N/A,Fog,Fog,270,2013-03-19 09:35:00
5:55 AM,38.8,38.8,100,29.89,0.2,Calm,Calm,-,N/A,Fog,Fog,0,2013-03-19 09:55:00
6:15 AM,38.8,38.8,100,29.89,0.2,West,3.5,-,N/A,Fog,Fog,270,2013-03-19 10:15:00
6:35 AM,38.8,38.8,100,29.90,0.2,West,3.5,-,N/A,Fog,Fog,280,2013-03-19 10:35:00
6:55 AM,38.8,38.8,100,29.91,0.2,West,3.5,-,N/A,Fog,Fog,280,2013-03-19 10:55:00
7:15 AM,38.8,38.8,100,29.92,0.2,Calm,Calm,-,N/A,Fog,Fog,0,2013-03-19 11:15:00
7:35 AM,38.7,38.7,100,29.93,0.2,Calm,Calm,-,N/A,Fog,Fog,0,2013-03-19 11:35:00
7:55 AM,38.3,38.3,100,29.94,0.2,Calm,Calm,-,N/A,Fog,Fog,0,2013-03-19 11:55:00
8:15 AM,37.8,37.8,100,29.95,5.0,Calm,Calm,-,N/A,,Scattered Clouds,0,2013-03-19 12:15:00
8:35 AM,38.8,38.8,100,29.97,10.0,Calm,Calm,-,N/A,,Clear,0,2013-03-19 12:35:00
8:55 AM,41.5,41.5,100,29.99,10.0,NNW,5.8,-,N/A,,Clear,340,2013-03-19 12:55:00
9:15 AM,43.7,43.7,100,29.99,10.0,NW,6.9,-,N/A,,Clear,320,2013-03-19 13:15:00
9:35 AM,46.8,33.3,59,30.00,10.0,WNW,11.5,19.6,N/A,,Clear,300,2013-03-19 13:35:00
9:55 AM,47.7,31.1,53,30.01,10.0,NW,13.8,24.2,N/A,,Clear,310,2013-03-19 13:55:00
10:15 AM,48.9,29.3,47,30.00,10.0,WNW,8.1,-,N/A,,Clear,300,2013-03-19 14:15:00
10:35 AM,50.0,26.8,41,29.99,10.0,NW,9.2,-,N/A,,Clear,320,2013-03-19 14:35:00
10:55 AM,51.1,25.9,38,29.99,10.0,NNW,10.4,-,N/A,,Clear,330,2013-03-19 14:55:00
11:15 AM,51.8,24.4,34,29.99,10.0,NW,10.4,-,N/A,,Clear,320,2013-03-19 15:15:00
11:35 AM,52.7,22.8,31,29.98,10.0,North,8.1,-,N/A,,Clear,350,2013-03-19 15:35:00
11:55 AM,53.8,24.3,32,29.99,10.0,WNW,9.2,-,N/A,,Clear,300,2013-03-19 15:55:00
12:15 PM,55.4,24.1,30,30.00,10.0,NW,5.8,-,N/A,,Clear,310,2013-03-19 16:15:00
12:35 PM,56.5,21.0,25,29.99,10.0,SW,9.2,-,N/A,,Clear,230,2013-03-19 16:35:00
12:55 PM,57.2,18.3,22,29.99,10.0,West,12.7,20.7,N/A,,Clear,280,2013-03-19 16:55:00
1:15 PM,57.7,16.9,20,29.99,10.0,West,13.8,18.4,N/A,,Clear,270,2013-03-19 17:15:00
1:35 PM,58.3,17.2,20,29.99,10.0,West,17.3,23.0,N/A,,Clear,260,2013-03-19 17:35:00
1:55 PM,58.5,16.0,19,29.99,10.0,West,13.8,25.3,N/A,,Clear,280,2013-03-19 17:55:00
2:15 PM,59.4,18.5,20,29.99,10.0,WSW,13.8,20.7,N/A,,Clear,250,2013-03-19 18:15:00
2:35 PM,59.4,18.3,20,30.00,10.0,West,16.1,26.5,N/A,,Clear,280,2013-03-19 18:35:00
2:55 PM,60.4,18.7,20,30.00,10.0,WNW,11.5,19.6,N/A,,Clear,290,2013-03-19 18:55:00
3:15 PM,60.3,15.4,17,29.99,10.0,WNW,13.8,24.2,N/A,,Clear,300,2013-03-19 19:15:00
3:35 PM,60.6,17.1,18,29.99,10.0,West,15.0,18.4,N/A,,Clear,270,2013-03-19 19:35:00
3:55 PM,60.1,16.5,18,30.00,10.0,West,16.1,26.5,N/A,,Clear,270,2013-03-19 19:55:00
4:15 PM,59.9,15.8,18,30.00,10.0,West,13.8,27.6,N/A,,Clear,260,2013-03-19 20:15:00
4:35 PM,60.8,16.9,18,30.00,10.0,West,12.7,21.9,N/A,,Clear,270,2013-03-19 20:35:00
4:55 PM,60.8,15.1,17,30.00,10.0,WNW,11.5,23.0,N/A,,Clear,290,2013-03-19 20:55:00
5:15 PM,60.6,12.9,15,30.00,10.0,West,18.4,28.8,N/A,,Clear,280,2013-03-19 21:15:00
5:35 PM,59.9,12.2,15,30.00,10.0,West,12.7,28.8,N/A,,Clear,280,2013-03-19 21:35:00
5:55 PM,59.4,13.3,16,30.01,10.0,West,17.3,24.2,N/A,,Clear,280,2013-03-19 21:55:00
6:15 PM,58.3,15.3,19,30.02,10.0,West,15.0,20.7,N/A,,Clear,280,2013-03-19 22:15:00
6:35 PM,57.4,14.9,19,30.03,10.0,West,16.1,21.9,N/A,,Clear,280,2013-03-19 22:35:00
6:55 PM,56.3,15.4,20,30.04,10.0,WNW,12.7,18.4,N/A,,Clear,290,2013-03-19 22:55:00
7:15 PM,55.2,16.0,21,30.05,10.0,WNW,13.8,21.9,N/A,,Clear,290,2013-03-19 23:15:00
7:35 PM,54.0,15.3,22,30.05,10.0,West,12.7,18.4,N/A,,Clear,280,2013-03-19 23:35:00
7:55 PM,53.4,11.3,19,30.06,10.0,West,15.0,19.6,N/A,,Clear,280,2013-03-19 23:55:00
8:15 PM,52.7,7.0,16,30.07,10.0,West,11.5,18.4,N/A,,Clear,270,2013-03-20 00:15:00
8:35 PM,52.0,7.7,17,30.08,10.0,West,11.5,23.0,N/A,,Clear,280,2013-03-20 00:35:00
8:55 PM,51.8,7.2,17,30.08,10.0,West,8.1,18.4,N/A,,Clear,280,2013-03-20 00:55:00
9:15 PM,50.9,7.7,17,30.09,10.0,WNW,12.7,19.6,N/A,,Clear,290,2013-03-20 01:15:00
9:35 PM,50.2,6.3,17,30.10,10.0,West,8.1,17.3,N/A,,Clear,280,2013-03-20 01:35:00
9:55 PM,49.8,5.5,17,30.10,10.0,West,6.9,-,N/A,,Clear,280,2013-03-20 01:55:00
10:15 PM,48.2,7.2,19,30.10,10.0,West,3.5,-,N/A,,Clear,280,2013-03-20 02:15:00
10:35 PM,43.0,11.8,28,30.11,10.0,Calm,Calm,-,N/A,,Clear,0,2013-03-20 02:35:00
10:55 PM,35.8,15.4,44,30.10,10.0,Calm,Calm,-,N/A,,Clear,0,2013-03-20 02:55:00
11:15 PM,36.1,17.2,46,30.11,10.0,Calm,Calm,-,N/A,,Clear,0,2013-03-20 03:15:00
11:35 PM,32.0,18.7,58,30.10,10.0,Calm,Calm,-,N/A,,Clear,0,2013-03-20 03:35:00
11:55 PM,34.3,18.7,53,30.10,10.0,WNW,3.5,-,N/A,,Clear,300,2013-03-20 03:55:00